Location: Oshawa
(43.9000°N, 78.8670°W)
Time: 06:18:29
(UTC-05:00)

Cosmos 1821 Rocket - Visible Passes

Search period start: 27 February 2017 00:00
Search period end: 09 March 2017 00:00
Orbit: 946 x 1004 km, 82.9° (Epoch: 25 February)

Date Brightness Start Highest point End Pass type
(mag) Time Alt. Az. Time Alt. Az. Time Alt. Az.
28 Feb 6.6 22:14:02 11° N 22:14:02 11° N 22:14:16 10° N visible
01 Mar 6.5 22:38:48 13° N 22:38:48 13° N 22:39:29 10° N visible
02 Mar 6.3 21:18:54 12° NNE 21:18:54 12° NNE 21:19:14 10° NNE visible
02 Mar 6.6 23:03:31 14° NNW 23:03:31 14° NNW 23:04:25 10° N visible
03 Mar 6.1 21:43:34 17° NNE 21:43:34 17° NNE 21:44:49 10° N visible
03 Mar 6.7 23:28:11 12° NNW 23:28:11 12° NNW 23:28:55 10° NNW visible
04 Mar 6.0 22:08:11 21° N 22:08:11 21° N 22:10:07 10° N visible
05 Mar 5.8 20:48:08 17° NNE 20:48:08 17° NNE 20:49:41 10° NNE visible
05 Mar 6.1 22:32:44 22° NNW 22:32:44 22° NNW 22:35:08 10° N visible
06 Mar 5.4 21:12:36 27° NNE 21:12:36 27° NNE 21:15:21 10° NNE visible
06 Mar 6.3 22:57:12 18° NW 22:57:12 18° NW 22:59:47 10° NNW visible
07 Mar 5.8 19:52:23 14° NE 19:52:23 14° NE 19:53:47 10° NE visible
07 Mar 5.1 21:36:59 37° N 21:36:59 37° N 21:40:43 10° N visible
07 Mar 6.6 23:21:34 12° NW 23:21:34 12° NW 23:23:29 10° NW visible
08 Mar 5.1 20:16:38 26° NE 20:16:38 26° NE 20:20:06 10° NNE visible
08 Mar 5.3 22:01:13 37° NW 22:01:13 37° NW 22:05:49 10° N visible
